• In United Kingdom
  • List of Countries
  • For 7 days
  • Water Temperature
  • Satellite Maps
  • Weather Map
  • Weather Widgets
  • user-avatar
    Login

    Hourly Weather Bogorodchany

    Today, 22 October, Monday

    Time Temperature Precipitation Wind Pressure Humidity
    00:00 +6°C° 0 mm 2 mps 739 mmHg 95%
    01:00 +6°C° 0 mm 2 mps 739 mmHg 94%
    02:00 +6°C° 0 mm 2 mps 739 mmHg 94%
    03:00 +5°C° 0 mm 2 mps 739 mmHg 95%
    04:00 +5°C° 0 mm 2 mps 738 mmHg 96%
    05:00 +5°C° 0 mm 2 mps 738 mmHg 97%
    06:00 +4°C° 0 mm 2 mps 738 mmHg 98%
    07:00 +5°C° 0 mm 1 mps 738 mmHg 97%
    08:00 +6°C° 0 mm 1 mps 738 mmHg 96%
    09:00 +6°C° 0 mm 0 mps 738 mmHg 97%
    10:00 +7°C° 0 mm 0 mps 739 mmHg 94%
    11:00 +10°C° 0 mm 1 mps 738 mmHg 92%
    12:00 +10°C° 0 mm 1 mps 738 mmHg 89%
    13:00 +11°C° 0 mm 1 mps 738 mmHg 85%
    14:00 +11°C° 0 mm 1 mps 738 mmHg 85%
    15:00 +11°C° 0 mm 1 mps 737 mmHg 87%
    16:00 +11°C° 0 mm 1 mps 737 mmHg 90%
    17:00 +10°C° 0 mm 1 mps 737 mmHg 94%
    18:00 +10°C° 0 mm 1 mps 736 mmHg 97%
    19:00 +9°C° 0 mm 0 mps 736 mmHg 97%
    20:00 +9°C° 0 mm 0 mps 736 mmHg 98%
    21:00 +9°C° 0 mm 0 mps 736 mmHg 98%
    22:00 +9°C° 0 mm 0 mps 736 mmHg 98%
    23:00 +9°C° 0 mm 1 mps 736 mmHg 97%

    Tomorrow, 23 October, Tuesday

    Time Temperature Precipitation Wind Pressure Humidity
    00:00 +9°C° 0 mm 1 mps 736 mmHg 96%
    01:00 +8°C° 0 mm 1 mps 735 mmHg 99%
    02:00 +6°C° 0 mm 2 mps 735 mmHg 100%
    03:00 +6°C° 0 mm 2 mps 735 mmHg 98%
    04:00 +6°C° 0 mm 2 mps 734 mmHg 93%
    05:00 +6°C° 0 mm 2 mps 734 mmHg 92%
    06:00 +7°C° 0 mm 2 mps 733 mmHg 93%
    07:00 +5°C° 0 mm 3 mps 734 mmHg 99%
    08:00 +7°C° 0.3 mm 3 mps 734 mmHg 100%
    09:00 +6°C° 0 mm 4 mps 734 mmHg 98%
    10:00 +6°C° 0 mm 4 mps 734 mmHg 98%
    11:00 +7°C° 0 mm 5 mps 734 mmHg 93%
    12:00 +7°C° 0 mm 4 mps 733 mmHg 89%
    13:00 +7°C° 0 mm 4 mps 732 mmHg 87%
    14:00 +8°C° 0 mm 4 mps 732 mmHg 84%
    15:00 +9°C° 0 mm 3 mps 731 mmHg 87%
    16:00 +8°C° 0 mm 2 mps 730 mmHg 90%
    17:00 +9°C° 0 mm 1 mps 729 mmHg 94%
    18:00 +8°C° 0 mm 3 mps 728 mmHg 84%
    19:00 +8°C° 0 mm 2 mps 727 mmHg 85%
    20:00 +9°C° 0 mm 1 mps 726 mmHg 88%
    21:00 +8°C° 0 mm 2 mps 725 mmHg 88%
    22:00 +7°C° 0 mm 6 mps 724 mmHg 83%
    23:00 +6°C° 0 mm 8 mps 723 mmHg 81%

    Day after tomorrow, 24 October, Wednesday

    Time Temperature Precipitation Wind Pressure Humidity
    00:00 +6°C° 0 mm 8 mps 722 mmHg 81%
    01:00 +6°C° 0 mm 8 mps 721 mmHg 81%
    02:00 +6°C° 0 mm 8 mps 721 mmHg 81%
    03:00 +6°C° 0 mm 8 mps 720 mmHg 82%
    04:00 +6°C° 0 mm 7 mps 719 mmHg 83%
    05:00 +6°C° 0 mm 7 mps 718 mmHg 84%
    06:00 +6°C° 0 mm 7 mps 717 mmHg 83%
    07:00 +6°C° 0 mm 8 mps 716 mmHg 83%
    08:00 +6°C° 0 mm 9 mps 715 mmHg 84%
    09:00 +6°C° 0.6 mm 9 mps 715 mmHg 92%
    10:00 +6°C° 1.5 mm 10 mps 716 mmHg 83%
    11:00 +6°C° 0 mm 10 mps 717 mmHg 82%
    12:00 +5°C° 0 mm 10 mps 717 mmHg 79%
    13:00 +5°C° 0 mm 10 mps 718 mmHg 75%
    14:00 +3°C° 0 mm 11 mps 718 mmHg 77%
    15:00 +3°C° 0 mm 11 mps 718 mmHg 81%
    16:00 +3°C° 0 mm 11 mps 718 mmHg 83%
    17:00 +2°C° 0 mm 11 mps 719 mmHg 86%
    18:00 +1°C° 0 mm 10 mps 719 mmHg 90%
    19:00 +1°C° 0 mm 10 mps 720 mmHg 95%
    20:00 0°C° 0 mm 10 mps 720 mmHg 97%
    21:00 0°C° 0 mm 10 mps 720 mmHg 95%
    22:00 -1°C° 0 mm 11 mps 720 mmHg 95%
    23:00 -1°C° 0 mm 12 mps 720 mmHg 94%

    25 October, Thursday

    Time Temperature Precipitation Wind Pressure Humidity
    00:00 -1°C° 0 mm 12 mps 721 mmHg 94%
    01:00 -1°C° 0 mm 12 mps 721 mmHg 96%
    02:00 -1°C° 0 mm 12 mps 722 mmHg 95%
    03:00 -1°C° 0 mm 11 mps 722 mmHg 96%
    04:00 -2°C° 0 mm 11 mps 723 mmHg 98%
    05:00 -2°C° 0 mm 11 mps 724 mmHg 98%
    06:00 -2°C° 0 mm 10 mps 724 mmHg 99%
    07:00 -2°C° 0 mm 10 mps 725 mmHg 99%
    08:00 0°C° 0 mm 9 mps 726 mmHg 97%
    09:00 0°C° 0 mm 9 mps 726 mmHg 94%
    10:00 +1°C° 0 mm 9 mps 727 mmHg 93%
    11:00 +1°C° 0 mm 8 mps 727 mmHg 93%
    12:00 +3°C° 0 mm 7 mps 728 mmHg 92%
    13:00 +4°C° 0 mm 6 mps 728 mmHg 90%
    14:00 +4°C° 0 mm 6 mps 729 mmHg 87%

    26 October, Friday

    Time Temperature Precipitation Wind Pressure Humidity

    27 October, Saturday

    Time Temperature Precipitation Wind Pressure Humidity

    28 October, Sunday

    Time Temperature Precipitation Wind Pressure Humidity
    Show more